Location: Sternwarte_Laufen
(47.9344°N, 12.9346°E)
Time: 04:36:18
(UTC+02:00)

ISS - Pass Details

Date: 14 July 2025
Orbit: 413 x 417 km, 51.6° (Epoch: 12 July)

Event Time Altitude Azimuth Distance (km) Brightness Sun altitude
Rises 01:10:19 0° 293° (WNW) 2,357 0.4 -20.4°
Reaches altitude 10° 01:12:25 10° 293° (WNW) 1,493 -0.7 -20.4°
Enters shadow 01:15:19 65° 290° (WNW) 463 -3.6 -20.4°
